FloripaSat 1
1 44885U 19093G   25201.81059307  .00003720  00000-0  31291-3 0  9995
2 44885  97.8185 289.5052 0012322  69.4204 290.8339 14.98831372302921
RS-44
1 44909U 19096E   25201.44250455  .00000034  00000-0  91913-4 0  9994
2 44909  82.5199 200.1288 0217007 199.7494 159.5110 12.79742099259911
UPMSat 2
1 46276U 20061E   25201.18914686  .00074492  00000-0  52044-3 0  9991
2 46276  97.2413 277.0864 0001785 148.0610 212.0763 15.74068277271848
SALSAT
1 46495U 20068K   25201.87719693  .00006069  00000-0  25931-3 0  9998
2 46495  97.8623 181.8322 0011872  28.0915 332.0959 15.23206430264812
CubeSX-Sirius-HSE
1 47951U 21022V   25157.62701764  .07883385  25648-5  89537-3 0  9993
2 47951  97.4004  72.1904 0010275 223.9924 136.0557 16.36879307233400
CubeSX-HSE
1 47952U 21022W   25157.69972699  .06655353  25454-5  93288-3 0  9992
2 47952  97.3980  72.5414 0010307 219.3637 140.6911 16.34906352233436
GRBAlpha
1 47959U 21022AD  25160.45426279  .07940347  25506-5  90589-3 0  9995
2 47959  97.3899  75.6235 0011032 227.2558 132.7812 16.36806138232695
TUBIN
1 48900U 21059X   25201.78535108  .00045474  00000-0  48776-3 0  9994
2 48900  97.6763  14.4656 0003714  91.0959 269.0725 15.63682705226470
LEDSAT
1 49069U 21073D   25201.65711302  .00068608  00000-0  66983-3 0  9999
2 49069  97.3869 285.0646 0007674 271.4787  88.5594 15.65945370217850
CUTE
1 49263U 21088D   25201.47941199  .00035755  00000-0  66720-3 0  9996
2 49263  97.4497 278.9589 0008764  95.2517 264.9734 15.48668710210754
TeikyoSat 4
1 49396U 21102B   25201.83170841  .00001556  00000-0  10559-3 0  9999
2 49396  97.4082 238.7691 0012320   0.1252 359.9977 15.07782126202762
Z-Sat
1 49399U 21102E   25201.84508881  .00003301  00000-0  18128-3 0  9992
2 49399  97.3780 242.1359 0016791 325.4265  34.5874 15.14689011203223
KOSEN 1
1 49402U 21102H   25201.86720584  .00005476  00000-0  25139-3 0  9990
2 49402  97.3686 245.8887 0014008 296.8711  63.1092 15.20730858203565
HO-113
1 50466U 21131B   25201.87193786  .00000371  00000-0  12951-3 0  9990
2 50466  98.5106 291.0239 0004486  29.1209 331.0229 14.40852248187399
Foresail-1
1 52766U 22057AL  25176.64799660  .13857605  27391-5  25307-3 0  9992
2 52766  97.5832 331.2310 0012137 233.7199 258.4922 16.46795272172486
SNUGLITE 2
1 52899U 22065F   25201.86098199  .00000830  00000-0  17017-3 0  9998
2 52899  98.1737 343.4451 0007250 354.1498   5.9618 14.63288023162524
UmKA 1 (RS40S)
1 57172U 23091G   25201.87242914  .00004216  00000-0  22432-3 0  9993
2 57172  97.5560 257.0433 0014257 185.1771 174.9316 15.15713326113739
CubeBel-2 (EU11S)
1 57175U 23091K   25201.85686299  .00006938  00000-0  32550-3 0  9997
2 57175  97.5560 258.4320 0011913 190.7679 169.3302 15.19918819113828
VERONIKA
1 58261U 23174F   25200.88712370  .00289615  00000-0  12294-2 0  9995
2 58261  97.4060 289.8642 0007474 235.6533 124.4030 15.84533811 95038
ENSO
1 58470U 23185J   25201.87494068  .00055790  00000-0  69082-3 0  9993
2 58470  97.3714 278.4348 0005143 274.7395  85.3275 15.59897209 91468
EIRSAT-1
1 58472U 23185L   25201.00900840  .00154027  00000-0  94990-3 0  9999
2 58472  97.3642 280.2785 0005093 253.8709 106.1996 15.76699885 91514
SONATE-2
1 59112U 24043Q   25201.85390303  .00013371  00000-0  37275-3 0  9994
2 59112  97.5172 333.9036 0009819 332.4550  27.6173 15.36851942 76673
MO-122
1 60209U 24125G   25201.85792838  .00015080  00000-0  41230-3 0  9998
2 60209  97.2761  53.0404 0017658 354.8537   5.2523 15.37309513 58297
GRBBeta
1 60237U 24128C   25201.52410179  .00002756  00000-0  21352-3 0  9990
2 60237  61.9922 296.7662 0054672  66.2715 294.4098 15.02917387 56356
Curium One
1 60242U 24128H   25201.55677581  .00004752  00000-0  33189-3 0  9990
2 60242  61.9820 294.3229 0054677  62.5746 298.0892 15.05598023 56403
ROBUSTA-3A
1 60243U 24128J   25201.70518572  .00004579  00000-0  32484-3 0  9996
2 60243  61.9891 294.7702 0053675  60.2885 300.3534 15.05122985 56419
CatSat
1 60246U 24125J   25201.15641590  .00009146  00000-0  29991-3 0  9996
2 60246  97.2566  51.0883 0040355 311.0341  48.7414 15.31041502 56191
HYPERVIEW-1G (RS66S)
1 61772U 24199AP  25201.90892271  .00017731  00000-0  49201-3 0  9994
2 61772  97.3487  70.7092 0014439  51.3419 308.9115 15.36867836 83306
AO-123
1 61781U 24199AY  25201.82117422  .00005166  00000-0  18646-3 0  9991
2 61781  97.3504  69.0451 0017093  55.8307 304.4551 15.28802698 83187
ZIMSAT 2
1 61783U 24199BA  25201.87235438  .00034144  00000-0  76685-3 0  9991
2 61783  97.3459  71.6305 0013691  49.1366 311.1066 15.43191714 86519
HADES-R (SO-124)
1 62690U 25009CK  25200.69304300  .00028747  00000-0  94678-3 0  9998
2 62690  97.4079 281.4052 0001186 300.5527  59.5597 15.31441908 28287
HYDRA-T
1 62692U 25009CM  25201.25901726  .00030503  00000-0  99327-3 0  9997
2 62692  97.4081 282.0216 0001063 276.5783  83.5338 15.31795195 28371
JINJUSat 1B
1 63210U 25052A   25201.25243836  .00008844  00000-0  39759-3 0  9999
2 63210  97.4373  94.8706 0004760 155.1354 205.0112 15.21350204 19433
NUSHSAT 1
1 63211U 25052B   25201.63480544  .00009367  00000-0  41705-3 0  9996
2 63211  97.4362  95.2606 0004652 157.9166 202.2271 15.21664662 19494
TEVEL2-4
1 63213U 25052D   25201.45950660  .00009330  00000-0  41953-3 0  9994
2 63213  97.4277  94.9002 0003275 167.6526 192.4791 15.21331061 19463
TEVEL2-5
1 63214U 25052E   25201.46067224  .00009225  00000-0  41517-3 0  9990
2 63214  97.4280  94.8991 0003289 167.9068 192.2247 15.21306268 19468
TEVEL2-6
1 63215U 25052F   25201.26656483  .00009044  00000-0  40763-3 0  9991
2 63215  97.4277  94.7020 0003254 167.8707 192.2607 15.21262246 19432
TEVEL2-1
1 63217U 25052H   25201.48092321  .00008354  00000-0  37927-3 0  9993
2 63217  97.4254  94.8330 0002931 183.4106 176.7110 15.21038152 19468
TEVEL2-2
1 63218U 25052J   25201.67854446  .00008301  00000-0  37678-3 0  9994
2 63218  97.4254  95.0287 0002977 184.0905 176.0307 15.21044488 19490
TEVEL2-3
1 63219U 25052K   25201.21832462  .00008498  00000-0  38584-3 0  9993
2 63219  97.4254  94.5740 0002886 185.8473 174.2729 15.21029415 19421
TEVEL2-8
1 63237U 25052AD  25201.64544028  .00008725  00000-0  41019-3 0  9998
2 63237  97.4318  94.8736 0006645 220.6440 139.4300 15.19804341 19478
TEVEL2-9
1 63238U 25052AE  25201.18860869  .00008807  00000-0  41491-3 0  9997
2 63238  97.4324  94.4173 0006721 222.5179 137.5536 15.19726754 19406
TEVEL2-7
1 63239U 25052AF  25201.52067844  .00008605  00000-0  40581-3 0  9993
2 63239  97.4318  94.7363 0006720 221.8120 138.2602 15.19699634 19454
HYDRA-W
1 63490U 25052BL  25201.44840139  .00020518  00000-0  82393-3 0  9993
2 63490  97.4267  95.2033 0009956 218.1136 141.9399 15.24942894 19488
HADES-ICM (SO-125)
1 63492U 25052BN  25200.42587073  .00017178  00000-0  70255-3 0  9999
2 63492  97.4268  94.1349 0010105 227.0196 133.0195 15.24364872 19325
